| time (UTC) | temp C | wind direction | speed KPH | gust KPH | rain 1hr cm | rain 24hr cm | rain mn cm | humidity % | barometer mb |
| 20260507072528 | 13 | 222 | 8.0 | 22.5 | 0.00 | 0.00 | 0.00 | 67 | 1010.3 |
| 20260507062528 | 13 | 295 | 9.7 | 20.9 | 0.00 | 0.00 | 0.00 | 67 | 1010.0 |
| 20260507055528 | 12 | 270 | 8.0 | 14.5 | 0.00 | 0.00 | 0.00 | 71 | 1009.7 |
| 20260507052528 | 12 | 273 | 9.7 | 20.9 | 0.00 | 0.00 | 0.00 | 73 | 1009.4 |
| 20260507045528 | 11 | 258 | 3.2 | 8.0 | 0.00 | 0.00 | 0.00 | 76 | 1009.3 |
| 20260507042528 | 11 | 275 | 6.4 | 14.5 | 0.00 | 0.00 | 0.00 | 77 | 1008.8 |
| 20260507035529 | 11 | 270 | 1.6 | 4.8 | 0.00 | 0.00 | 0.00 | 80 | 1008.5 |
| 20260507032529 | 11 | 272 | 0.0 | 0.0 | 0.00 | 0.00 | 0.00 | 82 | 1008.3 |
| 20260507025529 | 11 | 272 | 0.0 | 0.0 | 0.00 | 0.00 | 0.00 | 81 | 1008.1 |
| 20260507022529 | 11 | 271 | 1.6 | 3.2 | 0.00 | 0.00 | 0.00 | 80 | 1007.9 |
| 20260507015529 | 12 | 298 | 1.6 | 4.8 | 0.00 | 0.00 | 0.00 | 79 | 1007.7 |
| 20260507012529 | 12 | 294 | 4.8 | 11.3 | 0.00 | 0.00 | 0.00 | 77 | 1007.4 |
| 20260507005529 | 12 | 318 | 9.7 | 14.5 | 0.00 | 0.00 | 0.00 | 76 | 1007.0 |
| 20260507002529 | 12 | 317 | 1.6 | 6.4 | 0.00 | 0.00 | 0.00 | 77 | 1006.9 |
| 20260506235741 | 13 | 266 | 3.2 | 8.0 | 0.00 | 0.00 | 0.00 | 76 | 1006.7 |
| 20260506235529 | 13 | 266 | 3.2 | 8.0 | 0.00 | 0.00 | 0.00 | 76 | 1006.7 |
| 20260506232529 | 13 | 262 | 6.4 | 12.9 | 0.00 | 0.00 | 0.00 | 76 | 1006.3 |
| 20260506225529 | 13 | 279 | 3.2 | 12.9 | 0.00 | 0.00 | 0.00 | 74 | 1006.3 |
| 20260506222530 | 13 | 290 | 4.8 | 16.1 | 0.00 | 0.00 | 0.00 | 74 | 1005.9 |
| 20260506215530 | 13 | 275 | 4.8 | 12.9 | 0.00 | 0.00 | 0.00 | 74 | 1005.3 |
| 20260506212530 | 14 | 304 | 3.2 | 9.7 | 0.00 | 0.00 | 0.00 | 74 | 1004.7 |
| 20260506205530 | 15 | 286 | 6.4 | 12.9 | 0.00 | 0.00 | 0.00 | 72 | 1004.2 |
| 20260506202530 | 15 | 290 | 11.3 | 16.1 | 0.00 | 0.00 | 0.00 | 70 | 1004.0 |
| 20260506195530 | 17 | 320 | 12.9 | 33.8 | 0.00 | 0.00 | 0.00 | 62 | 1003.7 |
| 20260506192530 | 18 | 145 | 0.0 | 1.6 | 0.00 | 0.00 | 0.00 | 52 | 1002.4 |
| 20260506185530 | 20 | 145 | 0.0 | 1.6 | 0.00 | 0.00 | 0.00 | 48 | 1001.8 |
| 20260506182530 | 20 | 132 | 1.6 | 6.4 | 0.00 | 0.00 | 0.00 | 47 | 1001.0 |
| 20260506175530 | 21 | 189 | 0.0 | 3.2 | 0.00 | 0.00 | 0.00 | 43 | 1000.9 |
| 20260506172530 | 22 | 172 | 3.2 | 9.7 | 0.00 | 0.00 | 0.00 | 40 | 1000.7 |
| 20260506165530 | 23 | 104 | 3.2 | 6.4 | 0.00 | 0.00 | 0.00 | 41 | 1000.9 |
| 20260506162531 | 24 | 129 | 3.2 | 8.0 | 0.00 | 0.00 | 0.00 | 41 | 1001.1 |
| 20260506155531 | 24 | 112 | 6.4 | 12.9 | 0.00 | 0.00 | 0.00 | 42 | 1001.1 |
| 20260506152531 | 23 | 87 | 4.8 | 12.9 | 0.00 | 0.00 | 0.00 | 46 | 1001.7 |
| 20260506145531 | 22 | 54 | 4.8 | 11.3 | 0.00 | 0.00 | 0.00 | 46 | 1001.9 |
| 20260506142531 | 24 | 93 | 8.0 | 19.3 | 0.00 | 0.00 | 0.00 | 43 | 1002.3 |
| 20260506135531 | 22 | 73 | 4.8 | 14.5 | 0.00 | 0.00 | 0.00 | 49 | 1002.5 |
| 20260506132531 | 24 | 105 | 3.2 | 11.3 | 0.00 | 0.00 | 0.00 | 43 | 1002.9 |
| 20260506125531 | 24 | 107 | 4.8 | 12.9 | 0.00 | 0.00 | 0.00 | 43 | 1003.2 |
| 20260506122531 | 24 | 65 | 6.4 | 12.9 | 0.00 | 0.00 | 0.00 | 45 | 1003.6 |
| 20260506115531 | 23 | 83 | 6.4 | 19.3 | 0.00 | 0.00 | 0.00 | 47 | 1003.9 |
| 20260506112532 | 23 | 173 | 8.0 | 17.7 | 0.00 | 0.00 | 0.00 | 45 | 1004.3 |
| 20260506105532 | 22 | 189 | 4.8 | 16.1 | 0.00 | 0.00 | 0.00 | 43 | 1004.5 |
| 20260506102532 | 22 | 143 | 3.2 | 11.3 | 0.00 | 0.00 | 0.00 | 46 | 1004.7 |
| 20260506092532 | 21 | 127 | 3.2 | 9.7 | 0.00 | 0.00 | 0.00 | 51 | 1005.1 |
| 20260506085532 | 21 | 137 | 3.2 | 8.0 | 0.00 | 0.00 | 0.00 | 54 | 1005.3 |
| 20260506082532 | 20 | 148 | 3.2 | 11.3 | 0.00 | 0.00 | 0.00 | 55 | 1005.7 |